Location: Castiglione Fibocchi
(43.5333°N, 11.7667°E)
Time: 14:03:36
(UTC+00:00)

Cosmos 2263 Rocket - Pass Details

Date: 15 August 2020
Orbit: 823 x 848 km, 71.0° (Epoch: 24 September)

Event Time Altitude Azimuth Distance (km) Brightness Sun altitude
Exits shadow 01:57:02 37° 267° (W) 1,259 2.7 -22.0°
Maximum altitude 01:58:20 43° 302° (WNW) 1,144 2.8 -21.8°
Drops below altitude 10° 02:03:37 10° 13° (NNE) 2,432 5.4 -21.1°
Sets 02:06:12 0° 21° (NNE) 3,370 6.5 -20.8°
